Weather History for Wenatchee, WA

Change the Weather History Date:

Saturday, April 5, 2014

  Actual Average Record
Temperature  
Mean Temperature 42 °F 44 °F  
Max Temperature 53 °F 54 °F 78 °F (1977)
Min Temperature 31 °F 33 °F 29 °F (1997)
Degree Days  
Heating Degree Days 23 21  
Month to date heating degree days 114 107  
Since 1 July heating degree days 6256 6115  
Cooling Degree Days 0 0  
Month to date cooling degree days 0 0  
Year to date cooling degree days 0 0  
Growing Degree Days 2 (Base 50)    
Moisture  
Dew Point 31 °F    
Average Humidity 0    
Maximum Humidity 0    
Minimum Humidity 0    
Precipitation  
Precipitation 0.02 in 0.05 in 0.29 in (2010)
Month to date precipitation 0.13 0.26  
Year to date precipitation 5.35 5.30  
Snow  
Snow 0.00 in 0.10 in - ()
Month to date snowfall T 0.6  
Since 1 July snowfall 31.0 52.3  
Snow Depth 0.00 in    
Sea Level Pressure  
Sea Level Pressure 29.94 in    
Wind  
Wind Speed 8 mph (WNW)    
Max Wind Speed 16 mph    
Max Gust Speed 0 mph    
Visibility 10 miles    
Events      
T = Trace of Precipitation, MM = Missing Value Source: NWS Daily Summary

Daily Weather History Graph

Daily Weather History Graph

Search for Another Location

Airport:

Trip Planner

Search our weather history database for the weather conditions in past years. The results will help you decide how hot, cold, wet, or windy it might be!

Date:

Astronomy

Apr. 05, 2014 Rise Set
Actual Time 6:31 AM PDT 7:36 PM PDT
Civil Twilight 6:00 AM PDT 8:07 PM PDT
Nautical Twilight 5:22 AM PDT 8:45 PM PDT
Astronomical Twilight 4:42 AM PDT 9:25 PM PDT
Moon 10:29 AM PDT (4/5) 1:04 AM PDT (4/5)
Length of Visible Light 14h 07m
Length of Day
13h 04m
Waxing Crescent, 35% of the Moon is Illuminated
Apr 5
Waxing Crescent
Apr 7
First Quarter
Apr 15
Full
Apr 22
Last Quarter
Apr 28
New

Hourly Weather History & Observations

Time (PDT) Temp. Windchill Dew Point Humidity Pressure Visibility Wind Dir Wind Speed Gust Speed Precip Events Conditions
12:55 AM 45.0 °F 38.9 °F 28.0 °F 52% 29.90 in 10.0 mi NW 12.7 mph - N/A   Clear
1:55 AM 44.1 °F 38.1 °F 27.0 °F 51% 29.90 in 10.0 mi North 11.5 mph - N/A   Clear
2:55 AM 44.1 °F 39.5 °F 27.0 °F 51% 29.91 in 10.0 mi NNW 8.1 mph - N/A   Clear
3:55 AM 46.0 °F 41.4 °F 28.0 °F 50% 29.91 in 10.0 mi NNW 9.2 mph - N/A   Overcast
4:55 AM 46.0 °F 42.5 °F 28.0 °F 50% 29.92 in 10.0 mi NW 6.9 mph - N/A   Overcast
5:55 AM 45.0 °F - 28.0 °F 52% 29.93 in 10.0 mi Calm Calm - N/A   Overcast
6:55 AM 45.0 °F 42.6 °F 28.0 °F 52% 29.96 in 10.0 mi NW 4.6 mph - N/A   Mostly Cloudy
7:55 AM 45.0 °F 43.5 °F 28.9 °F 53% 29.98 in 10.0 mi NNE 3.5 mph - N/A   Clear
8:55 AM 48.0 °F - 30.0 °F 50% 29.98 in 10.0 mi SSW 4.6 mph - N/A   Partly Cloudy
9:55 AM 51.1 °F - 30.0 °F 44% 29.98 in 10.0 mi Variable 3.5 mph - N/A   Clear
10:55 AM 54.0 °F - 30.9 °F 41% 29.97 in 10.0 mi Calm Calm - N/A   Clear
11:55 AM 57.9 °F - 30.0 °F 35% 29.97 in 10.0 mi Calm Calm - N/A   Scattered Clouds
12:55 PM 59.0 °F - 28.9 °F 32% 29.95 in 10.0 mi Variable 3.5 mph - N/A   Mostly Cloudy
1:55 PM 60.1 °F - 30.9 °F 33% 29.95 in 10.0 mi West 9.2 mph - N/A   Mostly Cloudy
2:55 PM 61.0 °F - 32.0 °F 34% 29.94 in 10.0 mi West 15.0 mph 23.0 mph N/A   Mostly Cloudy
3:55 PM 61.0 °F - 30.9 °F 32% 29.93 in 10.0 mi West 15.0 mph - N/A   Partly Cloudy
4:55 PM 60.1 °F - 30.9 °F 33% 29.92 in 10.0 mi West 12.7 mph 20.7 mph N/A   Partly Cloudy
5:55 PM 59.0 °F - 30.9 °F 35% 29.93 in 10.0 mi West 13.8 mph - N/A   Overcast
6:55 PM 55.9 °F - 35.1 °F 45% 29.93 in 10.0 mi WNW 16.1 mph - 0.00 in   Overcast
7:55 PM 53.1 °F - 37.0 °F 55% 29.94 in 10.0 mi North 10.4 mph - N/A   Overcast
8:55 PM 50.0 °F - 36.0 °F 59% 29.95 in 10.0 mi Variable 5.8 mph - N/A   Scattered Clouds
9:55 PM 48.9 °F - 37.9 °F 66% 29.96 in 10.0 mi West 8.1 mph - N/A   Clear
10:55 PM 46.9 °F - 39.0 °F 74% 29.97 in 10.0 mi WSW 3.5 mph - N/A   Clear
11:55 PM 46.0 °F 44.8 °F 37.0 °F 71% 29.98 in 10.0 mi West 3.5 mph - N/A   Clear